Location: Gönnheim
(49.4488°N, 8.2383°E)
Time: 06:48:06
(UTC+00:00)

Cosmos 1959 Rocket - Pass Details

Date: 19 May 2025
Orbit: 947 x 995 km, 83.0° (Epoch: 22 June)

Event Time Altitude Azimuth Distance (km) Brightness Sun altitude
Rises 20:50:11 0° 351° (N) 3,650 8.7 -12.7°
Reaches altitude 10° 20:52:41 10° 353° (N) 2,706 7.8 -12.9°
Maximum altitude 20:58:53 76° 79° (E) 1,001 4.5 -13.5°
Enters shadow 21:03:44 18° 164° (SSE) 2,205 5.8 -14.0°
